Skip Page Navigation
NASA JPL Caltech
NASA Logo - Jet Propulsion Laboratory + View the NASA Portal
+ Center for Near-Earth Object Studies
JPL Home Earth Solar System Stars & Galaxies Technology
JPL Solar System Dynamics
BODIES ORBITS EPHEMERIDES TOOLS PHYSICAL DATA DISCOVERY FAQ SITE MAP
JPL Small-Body Database Browser
Search: [ help ]  
181042 (2005 OF29)
Classification: Main-belt Asteroid          SPK-ID: 2181042
Ephemeris | Orbit Diagram | Orbital Elements | Mission Design | Physical Parameters | Discovery Circumstances ]

[ show orbit diagram ]
Orbital Elements at Epoch 2459200.5 (2020-Dec-17.0) TDB
Reference: JPL 15 (heliocentric ecliptic J2000)
 Element Value Uncertainty (1-sigma)   Units 
e .2208468416077995 6.6834e-08  
a 2.755296238037003 1.4653e-08 au
q 2.146797766172679 1.8458e-07 au
i 14.4864956331965 6.8916e-06 deg
node 171.8139822219172 1.7193e-05 deg
peri 195.6829432851373 2.083e-05 deg
M 96.53134160053558 9.1088e-06 deg
tp 2458752.563226894760
(2019-Sep-26.06322689)
4.2512e-05 TDB
period 1670.51690823068
4.57
1.3326e-05
3.648e-08
d
yr
n .2155021587786815 1.719e-09 deg/d
Q 3.363794709901327 1.7888e-08 au
  Orbit Determination Parameters
   # obs. used (total)      371  
   data-arc span      8034 days (22.00 yr)  
   first obs. used      1999-03-21  
   last obs. used      2021-03-19  
   planetary ephem.      DE441  
   SB-pert. ephem.      SB441-N16  
   condition code      0  
   norm. resid. RMS      .53543  
   source      ORB  
   producer      Otto Matic  
   solution date      2021-May-04 10:09:15  

Additional Information
 Earth MOID = 1.14643 au 
 Jupiter MOID = 2.10124 au 
 T_jup = 3.263 
[ show covariance matrix ]

Ephemeris | Orbit Diagram | Orbital Elements | Mission Design | Physical Parameters | Discovery Circumstances ]

Physical Parameter Table
Parameter Symbol Value Units Sigma Reference Notes
absolute magnitude H 16.21   n/a MPCxxxxx  

181042 (2005 OF29)          Discovered 2005-Jul-16 by CSS at Catalina
Reference: 20080321/Numbers.arcLast Updated: 2008-03-26
Ephemeris | Orbit Diagram | Orbital Elements | Mission Design | Physical Parameters | Discovery Circumstances ]
ABOUT SSD CREDITS/AWARDS PRIVACY/COPYRIGHT GLOSSARY LINKS
FirstGov 2021-May-16 08:59 UT
(server date/time)  
NASA Home Page
Site Manager:   Ryan S. Park
Webmaster  Alan B. Chamberlin